Location: Newark
(7.0858°N, 171.3717°E)
Time: 20:53:07
(UTC+00:00)

Vanguard 2 - Pass Details

Date: 04 December 2020
Orbit: 553 x 2937 km, 32.9° (Epoch: 17 January)

Event Time Altitude Azimuth Distance (km) Brightness Sun altitude
Rises 12:49:59 0° 207° (SSW) 6,404 12.4 -73.6°
Reaches altitude 10° 12:57:17 10° 187° (S) 5,663 12.0 -72.9°
Maximum altitude 13:06:23 16° 155° (SSE) 5,271 11.8 -71.8°
Drops below altitude 10° 13:15:19 10° 124° (SE) 5,600 12.0 -70.5°
Sets 13:22:17 0° 105° (ESE) 6,309 12.4 -69.4°
